| time (UTC) | temp C | wind direction | speed KPH | gust KPH | rain 1hr cm | rain 24hr cm | rain mn cm | humidity % | barometer mb |
| 20260902101510 | 19 | 280 | 11.3 | 0.0 | 0.00 | 0.00 | 0.00 | 56 | 1014.7 |
| 20260902100010 | 19 | 230 | 11.3 | 0.0 | 0.00 | 0.00 | 0.00 | 56 | 1014.7 |
| 20260902094510 | 18 | 260 | 9.7 | 0.0 | 0.00 | 0.00 | 0.00 | 61 | 1014.8 |
| 20260902093010 | 18 | 260 | 9.7 | 0.0 | 0.00 | 0.00 | 0.00 | 61 | 1014.8 |
| 20260902091509 | 18 | 270 | 8.0 | 0.0 | 0.00 | 0.00 | 0.00 | 63 | 1014.9 |
| 20260902090010 | 18 | 270 | 8.0 | 0.0 | 0.00 | 0.00 | 0.00 | 63 | 1014.9 |
| 20260902084510 | 18 | 240 | 9.7 | 0.0 | 0.00 | 0.00 | 0.00 | 64 | 1014.8 |
| 20260902083009 | 18 | 240 | 9.7 | 0.0 | 0.00 | 0.00 | 0.00 | 64 | 1014.8 |
| 20260902081510 | 17 | 230 | 6.4 | 0.0 | 0.00 | 0.00 | 0.00 | 68 | 1014.5 |
| 20260902080012 | 17 | 230 | 6.4 | 0.0 | 0.00 | 0.00 | 0.00 | 68 | 1014.5 |
| 20260902074510 | 16 | 230 | 6.4 | 0.0 | 0.00 | 0.00 | 0.00 | 75 | 1014.5 |
| 20260902073009 | 16 | 240 | 4.8 | 0.0 | 0.00 | 0.00 | 0.00 | 75 | 1014.5 |
| 20260902071509 | 15 | 240 | 4.8 | 0.0 | 0.00 | 0.00 | 0.00 | 79 | 1014.6 |
| 20260902070009 | 15 | 250 | 4.8 | 0.0 | 0.00 | 0.00 | 0.00 | 79 | 1014.6 |
| 20260902064509 | 15 | 250 | 4.8 | 0.0 | 0.00 | 0.00 | 0.00 | 82 | 1014.6 |
| 20260902063010 | 15 | 270 | 4.8 | 0.0 | 0.00 | 0.00 | 0.00 | 82 | 1014.6 |
| 20260902061509 | 14 | 270 | 4.8 | 0.0 | 0.00 | 0.00 | 0.00 | 85 | 1014.7 |
| 20260902060009 | 14 | 270 | 4.8 | 0.0 | 0.00 | 0.00 | 0.00 | 85 | 1014.7 |
| 20260902054510 | 13 | 270 | 4.8 | 0.0 | 0.00 | 0.00 | 0.00 | 87 | 1014.6 |
| 20260902053009 | 13 | 270 | 8.0 | 0.0 | 0.00 | 0.00 | 0.00 | 87 | 1014.6 |
| 20260902051509 | 13 | 270 | 8.0 | 0.0 | 0.00 | 0.00 | 0.00 | 90 | 1014.5 |
| 20260902050010 | 13 | 270 | 8.0 | 0.0 | 0.00 | 0.00 | 0.00 | 90 | 1014.5 |
| 20260902044509 | 11 | 280 | 4.8 | 0.0 | 0.00 | 0.00 | 0.00 | 97 | 1014.0 |
| 20260902043009 | 11 | 280 | 4.8 | 0.0 | 0.00 | 0.00 | 0.00 | 97 | 1014.0 |
| 20260902041509 | 12 | 280 | 4.8 | 0.0 | 0.00 | 0.00 | 0.00 | 98 | 1013.7 |
| 20260902040010 | 12 | 230 | 1.6 | 0.0 | 0.00 | 0.00 | 0.00 | 98 | 1013.7 |
| 20260902034509 | 11 | 250 | 3.2 | 0.0 | 0.00 | 0.00 | 0.00 | 93 | 1013.9 |
| 20260902033009 | 11 | 250 | 3.2 | 0.0 | 0.00 | 0.00 | 0.00 | 93 | 1013.9 |
| 20260902031510 | 13 | 250 | 4.8 | 0.0 | 0.00 | 0.00 | 0.00 | 89 | 1013.9 |
| 20260902030007 | 13 | 250 | 4.8 | 0.0 | 0.00 | 0.00 | 0.00 | 89 | 1013.9 |
| 20260901204509 | 18 | 270 | 14.5 | 0.0 | 0.00 | 0.00 | 0.00 | 66 | 1012.9 |
| 20260901203009 | 18 | 270 | 12.9 | 0.0 | 0.00 | 0.00 | 0.00 | 66 | 1012.9 |
| 20260901201510 | 19 | 270 | 12.9 | 0.0 | 0.00 | 0.00 | 0.00 | 63 | 1012.7 |
| 20260901200010 | 19 | 270 | 16.1 | 0.0 | 0.00 | 0.00 | 0.00 | 63 | 1012.7 |
| 20260901194509 | 20 | 270 | 17.7 | 0.0 | 0.00 | 0.00 | 0.00 | 57 | 1012.5 |
| 20260901193009 | 20 | 270 | 17.7 | 0.0 | 0.00 | 0.00 | 0.00 | 57 | 1012.5 |
| 20260901191509 | 20 | 270 | 17.7 | 0.0 | 0.00 | 0.00 | 0.00 | 56 | 1012.2 |
| 20260901190010 | 20 | 270 | 16.1 | 0.0 | 0.00 | 0.00 | 0.00 | 56 | 1012.2 |
| 20260901184509 | 21 | 270 | 16.1 | 0.0 | 0.00 | 0.00 | 0.00 | 55 | 1011.8 |
| 20260901183009 | 21 | 270 | 12.9 | 0.0 | 0.00 | 0.00 | 0.00 | 55 | 1011.8 |
| 20260901181509 | 21 | 270 | 12.9 | 0.0 | 0.00 | 0.00 | 0.00 | 54 | 1011.6 |
| 20260901180010 | 21 | 270 | 11.3 | 0.0 | 0.00 | 0.00 | 0.00 | 54 | 1011.6 |
| 20260901174509 | 21 | 270 | 11.3 | 0.0 | 0.00 | 0.00 | 0.00 | 51 | 1011.4 |
| 20260901173009 | 21 | 270 | 14.5 | 0.0 | 0.00 | 0.00 | 0.00 | 51 | 1011.4 |
| 20260901171509 | 22 | 270 | 14.5 | 0.0 | 0.00 | 0.00 | 0.00 | 48 | 1011.4 |
| 20260901170009 | 22 | 280 | 20.9 | 0.0 | 0.00 | 0.00 | 0.00 | 48 | 1011.4 |
| 20260901164510 | 22 | 280 | 20.9 | 0.0 | 0.00 | 0.00 | 0.00 | 46 | 1011.4 |
| 20260901163009 | 22 | 280 | 19.3 | 0.0 | 0.00 | 0.00 | 0.00 | 46 | 1011.4 |
| 20260901161509 | 23 | 280 | 19.3 | 0.0 | 0.00 | 0.00 | 0.00 | 45 | 1011.3 |
| 20260901160009 | 23 | 280 | 19.3 | 0.0 | 0.00 | 0.00 | 0.00 | 45 | 1011.3 |
| 20260901154509 | 23 | 270 | 17.7 | 0.0 | 0.00 | 0.00 | 0.00 | 49 | 1011.3 |
| 20260901153009 | 23 | 270 | 17.7 | 0.0 | 0.00 | 0.00 | 0.00 | 49 | 1011.3 |
| 20260901151510 | 22 | 270 | 17.7 | 0.0 | 0.00 | 0.00 | 0.00 | 48 | 1011.2 |
| 20260901150009 | 22 | 270 | 19.3 | 0.0 | 0.00 | 0.00 | 0.00 | 48 | 1011.2 |
| 20260901144509 | 23 | 270 | 19.3 | 0.0 | 0.00 | 0.00 | 0.00 | 51 | 1011.3 |
| 20260901143010 | 23 | 270 | 19.3 | 0.0 | 0.00 | 0.00 | 0.00 | 51 | 1011.3 |
| 20260901141509 | 23 | 260 | 16.1 | 0.0 | 0.00 | 0.00 | 0.00 | 50 | 1011.5 |
| 20260901140009 | 23 | 260 | 16.1 | 0.0 | 0.00 | 0.00 | 0.00 | 50 | 1011.5 |
| 20260901134509 | 21 | 260 | 16.1 | 0.0 | 0.00 | 0.00 | 0.00 | 53 | 1011.5 |
| 20260901133009 | 21 | 260 | 19.3 | 0.0 | 0.00 | 0.00 | 0.00 | 53 | 1011.5 |
| 20260901131510 | 21 | 250 | 19.3 | 0.0 | 0.00 | 0.00 | 0.00 | 54 | 1011.6 |
| 20260901130009 | 21 | 250 | 19.3 | 0.0 | 0.00 | 0.00 | 0.00 | 54 | 1011.6 |
| 20260901124509 | 21 | 250 | 19.3 | 0.0 | 0.00 | 0.00 | 0.00 | 56 | 1011.7 |
| 20260901123010 | 21 | 270 | 19.3 | 0.0 | 0.00 | 0.00 | 0.00 | 56 | 1011.7 |
| 20260901121509 | 21 | 270 | 20.9 | 0.0 | 0.00 | 0.00 | 0.00 | 55 | 1011.7 |
| 20260901120009 | 21 | 270 | 20.9 | 0.0 | 0.00 | 0.00 | 0.00 | 55 | 1011.7 |
| 20260901114509 | 21 | 270 | 20.9 | 0.0 | 0.00 | 0.00 | 0.00 | 56 | 1011.7 |
| 20260901113009 | 21 | 280 | 17.7 | 0.0 | 0.00 | 0.00 | 0.00 | 56 | 1011.7 |
| 20260901111509 | 20 | 280 | 17.7 | 0.0 | 0.00 | 0.00 | 0.00 | 60 | 1011.8 |
| 20260901110010 | 20 | 270 | 19.3 | 0.0 | 0.00 | 0.00 | 0.00 | 60 | 1011.8 |
| 20260901104509 | 20 | 270 | 19.3 | 0.0 | 0.00 | 0.00 | 0.00 | 63 | 1011.6 |
| 20260901103010 | 20 | 260 | 14.5 | 0.0 | 0.00 | 0.00 | 0.00 | 63 | 1011.6 |